| time (UTC) | temp C | wind direction | speed KPH | gust KPH | rain 1hr cm | rain 24hr cm | rain mn cm | humidity % | barometer mb |
| 20260506175026 | 0 | 360 | 6.4 | 0.0 | 0.00 | 0.00 | 0.03 | 76 | 1016.7 |
| 20260506174040 | 0 | 15 | 3.2 | 0.0 | 0.00 | 0.00 | 0.03 | 76 | 1016.6 |
| 20260506173031 | 0 | 348 | 6.4 | 0.0 | 0.00 | 0.00 | 0.03 | 79 | 1016.5 |
| 20260506172022 | 0 | 29 | 3.2 | 0.0 | 0.00 | 0.00 | 0.03 | 79 | 1016.5 |
| 20260506171019 | -1 | 21 | 6.4 | 0.0 | 0.00 | 0.00 | 0.03 | 78 | 1016.4 |
| 20260506170033 | -2 | 350 | 6.4 | 0.0 | 0.00 | 0.00 | 0.03 | 79 | 1016.9 |
| 20260506165025 | -2 | 10 | 1.6 | 0.0 | 0.00 | 0.00 | 0.00 | 81 | 1016.7 |
| 20260506163038 | -3 | 360 | 3.2 | 0.0 | 0.00 | 0.00 | 0.00 | 84 | 1016.2 |
| 20260506162030 | -3 | 326 | 1.6 | 0.0 | 0.00 | 0.00 | 0.00 | 85 | 1016.1 |
| 20260506161024 | -3 | 342 | 1.6 | 0.0 | 0.00 | 0.00 | 0.00 | 85 | 1016.2 |
| 20260506160041 | -3 | 5 | 1.6 | 0.0 | 0.00 | 0.00 | 0.00 | 86 | 1015.9 |
| 20260506153026 | -3 | 314 | 1.6 | 0.0 | 0.00 | 0.00 | 0.00 | 83 | 1014.9 |
| 20260506152023 | -3 | 319 | 1.6 | 0.0 | 0.00 | 0.00 | 0.00 | 82 | 1014.8 |
| 20260506151019 | -3 | 289 | 1.6 | 0.0 | 0.00 | 0.00 | 0.00 | 84 | 1014.7 |
| 20260506150038 | -4 | 286 | 3.2 | 0.0 | 0.00 | 0.00 | 0.00 | 84 | 1014.6 |
| 20260506145030 | -4 | 263 | 3.2 | 0.0 | 0.00 | 0.00 | 0.00 | 85 | 1014.6 |
| 20260506144023 | -4 | 346 | 3.2 | 0.0 | 0.00 | 0.00 | 0.00 | 85 | 1014.4 |
| 20260506143039 | -4 | 286 | 1.6 | 0.0 | 0.00 | 0.00 | 0.00 | 86 | 1014.6 |
| 20260506142034 | -4 | 246 | 1.6 | 0.0 | 0.00 | 0.00 | 0.00 | 86 | 1014.4 |
| 20260506141026 | -5 | 304 | 3.2 | 0.0 | 0.00 | 0.00 | 0.00 | 86 | 1014.9 |
| 20260506140023 | -5 | 5 | 1.6 | 0.0 | 0.00 | 0.00 | 0.00 | 86 | 1014.9 |
| 20260506135035 | -5 | 286 | 1.6 | 0.0 | 0.00 | 0.00 | 0.00 | 86 | 1014.6 |
| 20260506134031 | -5 | 120 | 0.0 | 0.0 | 0.00 | 0.00 | 0.00 | 85 | 1014.4 |
| 20260506133021 | -5 | 340 | 0.0 | 0.0 | 0.00 | 0.00 | 0.00 | 86 | 1014.2 |
| 20260506132034 | -5 | 343 | 0.0 | 0.0 | 0.00 | 0.00 | 0.00 | 86 | 1013.9 |
| 20260506131028 | -5 | 348 | 0.0 | 0.0 | 0.00 | 0.00 | 0.00 | 87 | 1013.6 |
| 20260506130029 | -5 | 348 | 3.2 | 0.0 | 0.00 | 0.00 | 0.00 | 87 | 1013.4 |
| 20260506125022 | -5 | 350 | 1.6 | 0.0 | 0.00 | 0.00 | 0.00 | 87 | 1013.1 |
| 20260506123031 | -4 | 293 | 1.6 | 0.0 | 0.00 | 0.00 | 0.00 | 88 | 1013.5 |
| 20260506122023 | -5 | 290 | 1.6 | 0.0 | 0.00 | 0.00 | 0.00 | 88 | 1013.4 |
| 20260506121023 | -4 | 300 | 3.2 | 0.0 | 0.00 | 0.00 | 0.00 | 88 | 1013.0 |
| 20260506115036 | -4 | 279 | 3.2 | 0.0 | 0.00 | 0.00 | 0.00 | 88 | 1012.8 |
| 20260506114029 | -4 | 279 | 1.6 | 0.0 | 0.00 | 0.00 | 0.00 | 88 | 1012.6 |
| 20260506113021 | -4 | 324 | 0.0 | 0.0 | 0.00 | 0.00 | 0.00 | 89 | 1012.8 |
| 20260506112031 | -4 | 340 | 0.0 | 0.0 | 0.00 | 0.00 | 0.00 | 89 | 1012.6 |
| 20260506111028 | -4 | 345 | 1.6 | 0.0 | 0.00 | 0.00 | 0.00 | 89 | 1012.5 |
| 20260506110022 | -4 | 317 | 1.6 | 0.0 | 0.00 | 0.00 | 0.00 | 88 | 1012.4 |
| 20260506105035 | -4 | 311 | 0.0 | 0.0 | 0.00 | 0.00 | 0.00 | 88 | 1012.1 |
| 20260506104026 | -4 | 333 | 1.6 | 0.0 | 0.00 | 0.00 | 0.00 | 88 | 1012.2 |
| 20260506102020 | -3 | 322 | 0.0 | 0.0 | 0.00 | 0.00 | 0.00 | 87 | 1012.1 |
| 20260506101033 | -3 | 336 | 0.0 | 0.0 | 0.00 | 0.00 | 0.00 | 88 | 1012.1 |
| 20260506095033 | -3 | 338 | 1.6 | 0.0 | 0.00 | 0.00 | 0.00 | 87 | 1012.7 |
| 20260506094030 | -3 | 324 | 1.6 | 0.0 | 0.00 | 0.00 | 0.00 | 86 | 1012.7 |
| 20260506092029 | -3 | 228 | 0.0 | 0.0 | 0.00 | 0.00 | 0.00 | 86 | 1012.6 |
| 20260506091024 | -3 | 296 | 0.0 | 0.0 | 0.00 | 0.00 | 0.00 | 87 | 1012.1 |
| 20260506090019 | -3 | 296 | 1.6 | 0.0 | 0.00 | 0.00 | 0.00 | 87 | 1012.2 |
| 20260506085020 | -3 | 304 | 1.6 | 0.0 | 0.00 | 0.00 | 0.00 | 87 | 1012.2 |
| 20260506083033 | -3 | 305 | 1.6 | 0.0 | 0.00 | 0.00 | 0.00 | 88 | 1011.8 |
| 20260506082030 | -3 | 41 | 0.0 | 0.0 | 0.00 | 0.00 | 0.00 | 88 | 1012.1 |
| 20260506081029 | -3 | 198 | 1.6 | 0.0 | 0.00 | 0.00 | 0.00 | 88 | 1011.8 |
| 20260506073030 | -2 | 311 | 4.8 | 0.0 | 0.00 | 0.00 | 0.00 | 89 | 1012.8 |
| 20260506062034 | 0 | 105 | 0.0 | 0.0 | 0.00 | 0.00 | 0.00 | 94 | 1011.8 |
| 20260506061030 | 0 | 105 | 1.6 | 0.0 | 0.00 | 0.00 | 0.00 | 94 | 1011.5 |
| 20260506051038 | 0 | 79 | 0.0 | 0.0 | 0.00 | 0.00 | 0.51 | 94 | 1011.0 |
| 20260506045031 | 0 | 79 | 0.0 | 0.0 | 0.00 | 0.00 | 0.51 | 94 | 1010.9 |
| 20260506044030 | 0 | 79 | 0.0 | 0.0 | 0.00 | 0.00 | 0.51 | 93 | 1011.1 |
| 20260506043027 | 0 | 79 | 0.0 | 0.0 | 0.00 | 0.00 | 0.51 | 93 | 1011.2 |
| 20260506041037 | 0 | 79 | 0.0 | 0.0 | 0.00 | 0.00 | 0.51 | 93 | 1011.2 |
| 20260506040033 | 0 | 79 | 0.0 | 0.0 | 0.00 | 0.00 | 0.51 | 93 | 1011.2 |
| 20260506035028 | 0 | 79 | 0.0 | 0.0 | 0.00 | 0.00 | 0.51 | 93 | 1011.0 |
| 20260506034028 | 0 | 79 | 0.0 | 0.0 | 0.00 | 0.00 | 0.51 | 93 | 1011.6 |
| 20260506033021 | 0 | 79 | 0.0 | 0.0 | 0.00 | 0.00 | 0.51 | 93 | 1011.7 |
| 20260506032037 | 0 | 79 | 0.0 | 0.0 | 0.00 | 0.00 | 0.51 | 93 | 1011.6 |
| 20260506031030 | 0 | 79 | 0.0 | 0.0 | 0.00 | 0.00 | 0.51 | 93 | 1011.6 |
| 20260506030023 | 0 | 79 | 0.0 | 0.0 | 0.00 | 0.00 | 0.51 | 93 | 1011.3 |
| 20260506025042 | 0 | 79 | 0.0 | 0.0 | 0.00 | 0.00 | 0.51 | 94 | 1011.1 |
| 20260506023028 | 1 | 79 | 0.0 | 0.0 | 0.00 | 0.00 | 0.51 | 94 | 1011.0 |
| 20260506022042 | 1 | 79 | 0.0 | 0.0 | 0.00 | 0.00 | 0.51 | 94 | 1010.9 |
| 20260506015031 | 1 | 83 | 0.0 | 0.0 | 0.00 | 0.00 | 0.51 | 94 | 1010.5 |
| 20260506014030 | 1 | 143 | 0.0 | 0.0 | 0.00 | 0.00 | 0.51 | 94 | 1010.3 |
| 20260506013027 | 1 | 143 | 0.0 | 0.0 | 0.00 | 0.00 | 0.51 | 94 | 1010.2 |
| 20260506012041 | 1 | 143 | 0.0 | 0.0 | 0.00 | 0.00 | 0.51 | 94 | 1009.9 |
| 20260506011018 | 1 | 142 | 0.0 | 0.0 | 0.00 | 0.00 | 0.51 | 94 | 1009.7 |
| 20260506005032 | 1 | 142 | 0.0 | 0.0 | 0.00 | 0.00 | 0.51 | 93 | 1009.5 |
| 20260506004023 | 0 | 143 | 0.0 | 0.0 | 0.00 | 0.00 | 0.51 | 93 | 1009.5 |
| 20260506003036 | 0 | 143 | 0.0 | 0.0 | 0.00 | 0.00 | 0.51 | 92 | 1010.1 |
| 20260506002033 | 1 | 143 | 1.6 | 0.0 | 0.00 | 0.00 | 0.51 | 92 | 1010.1 |
| 20260506001027 | 1 | 150 | 1.6 | 0.0 | 0.00 | 0.00 | 0.51 | 90 | 1010.0 |
| 20260506000040 | 1 | 350 | 0.0 | 0.0 | 0.00 | 0.00 | 0.51 | 91 | 1009.8 |
| 20260505235036 | 1 | 344 | 3.2 | 0.0 | 0.00 | 0.00 | 0.51 | 92 | 1009.7 |
| 20260505234036 | 1 | 283 | 1.6 | 0.0 | 0.00 | 0.00 | 0.51 | 93 | 1009.8 |
| 20260505233035 | 1 | 242 | 0.0 | 0.0 | 0.00 | 0.00 | 0.51 | 94 | 1009.9 |
| 20260505232034 | 1 | 157 | 0.0 | 0.0 | 0.00 | 0.00 | 0.48 | 94 | 1010.0 |
| 20260505231028 | 0 | 157 | 0.0 | 0.0 | 0.00 | 0.00 | 0.46 | 93 | 1010.1 |
| 20260505230029 | 0 | 157 | 0.0 | 0.0 | 0.00 | 0.00 | 0.43 | 93 | 1010.1 |
| 20260505225026 | 1 | 157 | 0.0 | 0.0 | 0.00 | 0.00 | 0.43 | 93 | 1010.0 |
| 20260505224023 | 1 | 157 | 0.0 | 0.0 | 0.00 | 0.00 | 0.43 | 92 | 1010.1 |
| 20260505223023 | 1 | 157 | 0.0 | 0.0 | 0.00 | 0.00 | 0.43 | 92 | 1010.1 |
| 20260505222035 | 2 | 157 | 0.0 | 0.0 | 0.00 | 0.00 | 0.43 | 92 | 1009.7 |
| 20260505221030 | 2 | 22 | 3.2 | 0.0 | 0.00 | 0.00 | 0.43 | 92 | 1009.9 |
| 20260505220033 | 2 | 71 | 3.2 | 0.0 | 0.00 | 0.00 | 0.43 | 92 | 1009.5 |
| 20260505214026 | 1 | 160 | 0.0 | 0.0 | 0.00 | 0.00 | 0.43 | 92 | 1009.4 |
| 20260505213041 | 1 | 161 | 0.0 | 0.0 | 0.00 | 0.00 | 0.41 | 92 | 1009.6 |
| 20260505212035 | 1 | 161 | 0.0 | 0.0 | 0.00 | 0.00 | 0.38 | 91 | 1009.9 |
| 20260505211033 | 1 | 337 | 0.0 | 0.0 | 0.00 | 0.00 | 0.36 | 91 | 1009.3 |
| 20260505210029 | 2 | 337 | 1.6 | 0.0 | 0.00 | 0.00 | 0.30 | 89 | 1009.7 |
| 20260505205022 | 2 | 296 | 4.8 | 0.0 | 0.00 | 0.00 | 0.28 | 88 | 1009.4 |
| 20260505204039 | 3 | 349 | 3.2 | 0.0 | 0.00 | 0.00 | 0.23 | 84 | 1009.5 |
| 20260505203033 | 4 | 265 | 1.6 | 0.0 | 0.00 | 0.00 | 0.20 | 86 | 1008.8 |
| 20260505202033 | 4 | 266 | 0.0 | 0.0 | 0.00 | 0.00 | 0.20 | 86 | 1008.5 |
| 20260505201026 | 4 | 266 | 0.0 | 0.0 | 0.00 | 0.00 | 0.20 | 88 | 1008.8 |
| 20260505200040 | 4 | 229 | 1.6 | 0.0 | 0.00 | 0.00 | 0.20 | 90 | 1008.7 |
| 20260505194030 | 3 | 98 | 6.4 | 0.0 | 0.00 | 0.00 | 0.20 | 91 | 1008.6 |
| 20260505193033 | 3 | 114 | 3.2 | 0.0 | 0.00 | 0.00 | 0.20 | 92 | 1008.8 |
| 20260505192033 | 3 | 119 | 1.6 | 0.0 | 0.00 | 0.00 | 0.20 | 91 | 1009.0 |
| 20260505190032 | 3 | 103 | 6.4 | 0.0 | 0.00 | 0.00 | 0.20 | 92 | 1009.0 |
| 20260505185031 | 3 | 69 | 6.4 | 0.0 | 0.00 | 0.00 | 0.20 | 92 | 1009.1 |
| 20260505184025 | 3 | 96 | 3.2 | 0.0 | 0.00 | 0.00 | 0.20 | 91 | 1009.2 |
| 20260505183028 | 3 | 51 | 3.2 | 0.0 | 0.00 | 0.00 | 0.20 | 91 | 1009.2 |
| 20260505182028 | 3 | 271 | 0.0 | 0.0 | 0.00 | 0.00 | 0.20 | 93 | 1009.3 |
| 20260505181022 | 2 | 284 | 1.6 | 0.0 | 0.00 | 0.00 | 0.20 | 93 | 1009.3 |